Location: EverStaR Observatory
(38.9036°N, 94.8303°W)
Time: 19:03:14
(UTC-05:00)

Hubble Space Telescope - Pass Details

Date: 24 March 2019
Orbit: 537 x 540 km, 28.5° (Epoch: 22 April)

Event Time Altitude Azimuth Distance (km) Brightness Sun altitude
Rises 21:35:47 0° 230° (SW) 2,672 4.7 -23.6°
Reaches altitude 10° 21:38:44 10° 208° (SSW) 1,783 3.5 -24.1°
Enters shadow 21:38:53 11° 207° (SSW) 1,750 3.4 -24.2°
